[[{"header":{"parameterUnit":"m.s-1","parameterCategory":1,"la1":30.2992,"la2":30.254,"lo1":-89.0895,"lo2":-89.0443,"dy":0.0025,"dx":0.0025,"nx":19,"ny":19,"refTime":"2026-03-17T09:00:00:Z","depth":0,"parameterNumber":2,"parameterNumberName":"U-component_of_WINDS"},"data":[0,0,0,-1.671,-1.6713,-1.6859,-1.686,-1.7045,-1.7046,0,0,0,0,0,0,0,0,0,0,0,-1.6665,-1.6666,-1.671,-1.6713,-1.6859,-1.686,-1.7044,-1.7046,0,0,0,0,0,0,0,0,0,0,0,-1.6665,-1.6666,-1.6668,-1.6714,-1.6859,-1.686,-1.7044,-1.6934,0,0,0,0,0,0,0,0,0,0,-1.6793,-1.675,-1.6666,-1.6668,-1.6715,-1.6859,-1.686,-1.6929,-1.6941,-1.6977,0,-1.7009,0,-1.7031,-1.7058,-1.7059,0,0,0,-1.6714,-1.674,-1.6781,-1.6668,-1.6716,-1.6859,-1.6794,-1.6936,-1.695,-1.6993,-1.7012,-1.7019,-1.7034,-1.706,-1.7061,-1.7264,-1.7265,0,0,-1.6706,-1.6691,-1.6771,-1.679,-1.6767,-1.6789,-1.6798,-1.6944,-1.6963,-1.7012,-1.7023,-1.7037,-1.7061,-1.7062,-1.7263,-1.7264,0,0,0,-1.6682,-1.6685,-1.6722,-1.6782,-1.6808,-1.6793,-1.6804,-1.6957,-1.697,-1.7025,-1.7039,-1.7062,-1.7064,-1.7262,-1.7263,-1.7292,0,0,0,-1.6677,-1.6671,-1.6719,-1.6711,-1.6806,-1.6885,-1.6813,-1.696,-1.6977,-1.7038,-1.7062,-1.7066,-1.7261,-1.7263,-1.7289,-1.7309,0,0,0,-1.6656,-1.6669,-1.669,-1.671,-1.6772,-1.6883,-1.6904,-1.6964,-1.6986,-1.7059,-1.7066,-1.726,-1.7262,-1.7287,-1.7305,-1.7357,0,0,0,-1.6629,-1.6714,-1.669,-1.679,-1.6771,-1.6899,-1.6904,-1.7,-1.7067,-1.7063,-1.7261,-1.7263,-1.7286,-1.7302,-1.7354,-1.7398,-1.7415,0,0,-1.6728,-1.6726,-1.6786,-1.6768,-1.6897,-1.6878,-1.7012,-1.7088,-1.7109,-1.7211,-1.7216,-1.729,-1.7304,-1.7356,-1.7516,-1.7529,0,0,0,-1.6812,-1.6855,-1.6892,-1.6955,-1.7014,-1.7066,-1.7123,-1.7151,-1.7238,-1.7158,-1.7324,-1.7333,-1.7364,-1.7386,-1.7397,-1.7424,-1.7273,-1.7273,-1.7272,-1.6931,-1.6952,-1.7053,-1.7092,-1.7152,-1.7209,-1.726,-1.7307,-1.7312,-1.7351,-1.7381,-1.7475,-1.75,-1.7509,-1.7537,-1.7406,-1.7407,-1.7407,-1.7407,-1.7077,-1.7141,-1.7144,-1.7243,-1.7265,-1.7348,-1.7406,-1.7406,-1.7486,-1.7455,-1.7483,-1.7446,-1.7523,-1.7548,-1.7409,-1.7409,-1.7408,-1.7408,-1.7408,-1.7157,-1.7191,-1.7223,-1.7314,-1.7382,-1.7418,-1.7494,-1.7512,-1.753,-1.7558,-1.7591,-1.7591,-1.7592,-1.7572,-1.7573,-1.7573,-1.7573,-1.7574,-1.7574,-1.7227,-1.7262,-1.7324,-1.7393,-1.7434,-1.7491,-1.7548,-1.7589,-1.7639,-1.7646,-1.7646,-1.7647,-1.7526,-1.7495,-1.7579,-1.7578,-1.7577,-1.7577,-1.7577,-1.7367,-1.7338,-1.7434,-1.7475,-1.7556,-1.7621,-1.7643,-1.7725,-1.7761,-1.7798,-1.7793,-1.7701,-1.77,-1.7691,-1.7665,-1.7788,-1.7788,-1.7788,-1.7788,-1.7434,-1.7435,-1.7536,-1.76,-1.7666,-1.7694,-1.7801,-1.7845,-1.7886,-1.791,-1.7895,-1.7863,-1.7853,-1.7858,-1.7845,-1.7821,-1.7981,-1.7982,-1.7982,-1.7521,-1.7529,-1.7616,-1.7655,-1.772,-1.7774,-1.7875,-1.7949,-1.799,-1.799,-1.7929,-1.7921,-1.7869,-1.7851,-1.785,-1.783,-1.7787,0,0]},{"header":{"parameterUnit":"m.s-1","parameterCategory":1,"la1":30.2992,"la2":30.254,"lo1":-89.0895,"lo2":-89.0443,"dy":0.0025,"dx":0.0025,"nx":19,"ny":19,"refTime":"2026-03-17T09:00:00:Z","depth":0,"parameterNumber":3,"parameterNumberName":"V-component_of_WINDS"},"data":[0,0,0,-2.5086,-2.5087,-2.5126,-2.5126,-2.5179,-2.518,0,0,0,0,0,0,0,0,0,0,0,-2.5076,-2.5077,-2.5086,-2.5087,-2.5126,-2.5126,-2.5179,-2.518,0,0,0,0,0,0,0,0,0,0,0,-2.5076,-2.5077,-2.5077,-2.5087,-2.5126,-2.5126,-2.5179,-2.5148,0,0,0,0,0,0,0,0,0,0,-2.511,-2.5103,-2.5077,-2.5077,-2.5087,-2.5126,-2.5126,-2.5147,-2.515,-2.5163,0,-2.5175,0,-2.5178,-2.5183,-2.5184,0,0,0,-2.5085,-2.51,-2.5109,-2.5077,-2.5088,-2.5126,-2.5108,-2.5149,-2.5152,-2.5167,-2.5175,-2.5177,-2.5179,-2.5184,-2.5184,-2.526,-2.5261,0,0,-2.5083,-2.5085,-2.5106,-2.5112,-2.5106,-2.5107,-2.5109,-2.5151,-2.516,-2.5176,-2.5178,-2.518,-2.5184,-2.5184,-2.526,-2.526,0,0,0,-2.5078,-2.5083,-2.5091,-2.5109,-2.5116,-2.5108,-2.5111,-2.5158,-2.516,-2.5179,-2.518,-2.5184,-2.5185,-2.5259,-2.526,-2.5281,0,0,0,-2.5077,-2.508,-2.509,-2.5091,-2.5116,-2.5138,-2.5117,-2.5157,-2.5162,-2.518,-2.5184,-2.5186,-2.5259,-2.526,-2.528,-2.5291,0,0,0,-2.5073,-2.508,-2.5086,-2.5091,-2.5108,-2.5137,-2.5142,-2.5158,-2.5163,-2.5184,-2.5186,-2.5259,-2.526,-2.5278,-2.5288,-2.5309,0,0,0,-2.507,-2.5106,-2.5087,-2.5127,-2.5108,-2.5151,-2.5141,-2.5173,-2.5194,-2.5185,-2.5259,-2.526,-2.5278,-2.5287,-2.5308,-2.5326,-2.5334,0,0,-2.5116,-2.5112,-2.5136,-2.5119,-2.5165,-2.5144,-2.5194,-2.5211,-2.5212,-2.5244,-2.5246,-2.528,-2.5288,-2.5309,-2.5383,-2.539,0,0,0,-2.5151,-2.5167,-2.5179,-2.5198,-2.5212,-2.5224,-2.5234,-2.524,-2.5267,-2.5229,-2.5295,-2.5299,-2.5312,-2.532,-2.5326,-2.5335,-2.5265,-2.5265,-2.5264,-2.5218,-2.5216,-2.5254,-2.5257,-2.5276,-2.5285,-2.5299,-2.5309,-2.5303,-2.5318,-2.5327,-2.5372,-2.5383,-2.5387,-2.5396,-2.5338,-2.5339,-2.5339,-2.5339,-2.5283,-2.5306,-2.5296,-2.5329,-2.5327,-2.5355,-2.5365,-2.5359,-2.5384,-2.5366,-2.5377,-2.5355,-2.5394,-2.5402,-2.534,-2.534,-2.534,-2.534,-2.5339,-2.5325,-2.5336,-2.5342,-2.5368,-2.5388,-2.539,-2.5414,-2.5412,-2.541,-2.5421,-2.5428,-2.5428,-2.5426,-2.5425,-2.5425,-2.5425,-2.5425,-2.5426,-2.5426,-2.5365,-2.5372,-2.5392,-2.5409,-2.542,-2.5434,-2.5442,-2.5453,-2.5464,-2.546,-2.546,-2.5451,-2.5399,-2.5384,-2.5428,-2.5428,-2.5427,-2.5427,-2.5427,-2.5429,-2.5414,-2.5445,-2.5456,-2.5474,-2.5493,-2.549,-2.5511,-2.552,-2.5531,-2.552,-2.5482,-2.5477,-2.5473,-2.5461,-2.5522,-2.5522,-2.5522,-2.5522,-2.5463,-2.546,-2.549,-2.5507,-2.5524,-2.5524,-2.5557,-2.5564,-2.5569,-2.5573,-2.5565,-2.5549,-2.5545,-2.5542,-2.5536,-2.5525,-2.5601,-2.5601,-2.5601,-2.5501,-2.55,-2.5529,-2.5532,-2.5546,-2.5558,-2.5588,-2.5608,-2.561,-2.5604,-2.5576,-2.5573,-2.5548,-2.554,-2.5532,-2.5523,-2.5502,0,0]}]]